W1RBO Stow MA US current weather conditions

sailwx.info

Wind from 099 at 1 knots gusting 6

Air temperature 30.0° C
Dewpoint 15.7° C

Last reported at 2020-Aug-14 16:55 UTC.
Time now 2020-Aug-14 17:27 UTC

Location: N 42°24' W 071°32'.
View on Google Maps.

See reports from other nearby stations

  
Tides and Currents Weather Stations Pressure Air Temp Water Temp Dewpoint Dewpoint Depression Visibility Wind Speed Wind Dir Waves Ship Positions
date/time (UTC)wind fromknots sea level pressurealtimeterstation pressurevisibilityair tempwater tempwave heightnotes
2020-Aug-14 17:05 126 2 gusting 10 29.4
2020-Aug-14 16:55 099 1 gusting 6 30.0
2020-Aug-14 16:45 076 0 gusting 2 30.0
2020-Aug-14 16:35 029 1 gusting 4 29.4
2020-Aug-14 16:30 122 1 gusting 2 29.4
2020-Aug-14 16:25 029 0 gusting 2 29.4
2020-Aug-14 16:20 057 1 gusting 4 29.4
2020-Aug-14 16:15 072 29.4
2020-Aug-14 16:05 058 0 gusting 2 29.4
2020-Aug-14 15:55 087 1 gusting 4 29.4
2020-Aug-14 15:50 023 0 gusting 4 28.9
2020-Aug-14 15:45 057 1 gusting 2 28.3
2020-Aug-14 15:35 026 1 gusting 2 28.9
2020-Aug-14 15:10 016 1 gusting 2 28.9
2020-Aug-14 15:00 132 2 gusting 6 29.4
2020-Aug-14 14:55 055 1 gusting 5 29.4
2020-Aug-14 14:45 172 1 gusting 4 28.9
2020-Aug-14 14:25 150 0 gusting 6 28.9
2020-Aug-14 14:20 236 0 gusting 2 28.3
2020-Aug-14 14:15 357 0 gusting 2 28.3
2020-Aug-14 14:00 241 1 gusting 4 27.8
2020-Aug-14 13:40 066 27.8
2020-Aug-14 13:35 008 0 gusting 2 27.2
2020-Aug-14 13:30 354 0 gusting 2 27.2
2020-Aug-14 13:20 105 0 gusting 2 26.7
2020-Aug-14 13:15 165 1 gusting 6 26.7
2020-Aug-14 13:10 047 26.1
2020-Aug-14 13:05 029 26.1
2020-Aug-14 13:00 056 25.6
2020-Aug-14 12:55 068 25.6
2020-Aug-14 12:50 068 0 gusting 2 25.0
2020-Aug-14 12:45 344 0 gusting 1 25.0
2020-Aug-14 12:40 333 0 gusting 1 25.0
2020-Aug-14 12:35 350 24.4
2020-Aug-14 12:25 350 23.3
2020-Aug-14 12:20 350 23.3
2020-Aug-14 12:15 350 22.8
2020-Aug-14 12:10 350 22.8
2020-Aug-14 12:00 350 21.7
2020-Aug-14 11:50 350 21.1
2020-Aug-14 11:45 350 20.6
2020-Aug-14 11:40 350 20.0
2020-Aug-14 11:35 350 20.0
2020-Aug-14 11:20 350 18.9
2020-Aug-14 11:00 350 17.8
2020-Aug-14 10:50 350 17.2
2020-Aug-14 10:45 350 17.2
2020-Aug-14 10:35 350 16.7
2020-Aug-14 10:30 350 16.7
2020-Aug-14 10:20 350 16.7
2020-Aug-14 10:15 350 16.7
2020-Aug-14 10:10 350 16.7
2020-Aug-14 10:05 350 16.7
2020-Aug-14 09:35 350 16.7
2020-Aug-14 09:25 350 17.2
2020-Aug-14 09:20 350 17.2
2020-Aug-14 09:15 350 17.2
2020-Aug-14 09:00 350 17.2
2020-Aug-14 08:50 350 17.2
2020-Aug-14 08:35 350 17.8
2020-Aug-14 08:20 350 17.8
2020-Aug-14 08:15 350 17.8
2020-Aug-14 08:10 350 17.8
2020-Aug-14 07:45 350 17.8
2020-Aug-14 07:30 350 17.8
2020-Aug-14 07:15 350 17.8
2020-Aug-14 07:05 350 17.8
2020-Aug-14 06:55 350 18.3
2020-Aug-14 06:50 350 18.3
2020-Aug-14 06:45 350 18.3
2020-Aug-14 06:35 350 18.3
2020-Aug-14 06:30 350 18.3
2020-Aug-14 06:25 350 18.3
2020-Aug-14 06:15 350 18.3
2020-Aug-14 06:05 350 18.3
2020-Aug-14 06:00 350 18.3
2020-Aug-14 05:50 350 18.3
2020-Aug-14 05:45 350 18.3
2020-Aug-14 05:40 350 18.3
2020-Aug-14 05:30 350 18.3
2020-Aug-14 05:25 350 18.9
2020-Aug-14 05:20 350 18.9
2020-Aug-14 05:15 350 18.9
2020-Aug-14 05:10 350 18.9
2020-Aug-14 04:45 350 18.9
2020-Aug-14 04:40 350 18.9
2020-Aug-14 04:35 350 19.4
2020-Aug-14 04:25 350 19.4
2020-Aug-14 04:05 350 19.4
2020-Aug-14 03:50 350 20.0
2020-Aug-14 03:20 350 20.6
2020-Aug-14 03:15 350 20.6
2020-Aug-14 03:00 350 20.6
2020-Aug-14 02:55 350 20.6
2020-Aug-14 02:40 350 21.1
2020-Aug-14 02:35 350 21.7
2020-Aug-14 02:25 350 21.7
2020-Aug-14 02:20 350 21.7
2020-Aug-14 02:10 350 22.2
2020-Aug-14 02:00 350 22.2
2020-Aug-14 01:45 350 22.8
2020-Aug-14 01:35 350 23.3
2020-Aug-14 01:25 350 23.9
2020-Aug-14 01:20 350 23.9
2020-Aug-14 01:15 350 23.9
2020-Aug-14 01:05 350 24.4
2020-Aug-14 01:00 350 24.4
2020-Aug-14 00:55 350 24.4
2020-Aug-14 00:40 350 25.0
2020-Aug-14 00:20 350 25.6
2020-Aug-14 00:15 350 26.1
2020-Aug-14 00:05 350 26.1
2020-Aug-13 22:55 350 27.8
2020-Aug-13 22:45 350 28.3
2020-Aug-13 22:30 350 28.3
2020-Aug-13 22:25 350 28.9
2020-Aug-13 22:10 350 28.9
2020-Aug-13 22:00 350 29.4
2020-Aug-13 21:55 350 30.0
2020-Aug-13 21:50 350 30.0
2020-Aug-13 21:30 350 30.6
2020-Aug-13 21:20 350 30.6
2020-Aug-13 21:15 350 30.6
2020-Aug-13 21:10 350 31.1
2020-Aug-13 21:00 350 31.1
2020-Aug-13 20:55 350 31.7
2020-Aug-13 20:40 350 31.7
2020-Aug-13 20:35 350 31.7
2020-Aug-13 20:25 350 31.7
2020-Aug-13 20:20 350 32.2
2020-Aug-13 20:15 350 32.2
2020-Aug-13 20:10 350 32.2
2020-Aug-13 20:05 350 32.8
2020-Aug-13 19:55 350 32.8
2020-Aug-13 19:45 350 32.8
2020-Aug-13 19:40 350 32.8
2020-Aug-13 19:35 350 33.3
2020-Aug-13 19:20 350 33.3
2020-Aug-13 19:00 351 32.8
2020-Aug-13 18:55 351 32.8
2020-Aug-13 18:45 351 32.8
2020-Aug-13 18:25 018 0 gusting 2 32.8
2020-Aug-13 18:20 019 0 gusting 2 32.8
2020-Aug-13 18:10 018 32.8
2020-Aug-13 18:05 017 32.8
2020-Aug-13 17:55 018 0 gusting 2 32.8
2020-Aug-13 17:45 089 1 gusting 2 33.3
2020-Aug-13 17:30 019 0 gusting 2 33.3
2020-Aug-13 17:20 354 0 gusting 2 33.3
2020-Aug-13 17:15 351 33.3
2020-Aug-13 17:05 333 0 gusting 2 32.8
2020-Aug-13 16:55 224 32.8
2020-Aug-13 16:50 135 32.8
2020-Aug-13 16:45 105 0 gusting 2 32.8
2020-Aug-13 16:40 142 1 gusting 4 32.8
2020-Aug-13 16:35 145 0 gusting 4 32.8
2020-Aug-13 16:30 141 0 gusting 2 32.2
2020-Aug-13 16:20 144 32.2
2020-Aug-13 16:15 144 32.2
2020-Aug-13 16:00 018 0 gusting 2 31.7
2020-Aug-13 15:55 016 0 gusting 4 31.7
2020-Aug-13 15:45 020 0 gusting 2 31.1
2020-Aug-13 15:30 330 1 gusting 4 31.1
2020-Aug-13 15:20 180 1 gusting 4 31.7
2020-Aug-13 15:15 080 31.1
2020-Aug-13 15:10 046 31.1
2020-Aug-13 15:05 047 31.1
2020-Aug-13 14:55 032 30.6
2020-Aug-13 14:50 080 0 gusting 2 30.6
2020-Aug-13 14:40 165 0 gusting 2 30.6
2020-Aug-13 14:35 164 0 gusting 5 30.6
2020-Aug-13 14:25 104 0 gusting 2 30.6
2020-Aug-13 14:20 084 0 gusting 2 30.6
2020-Aug-13 14:15 031 30.6
2020-Aug-13 14:10 021 30.6
2020-Aug-13 14:05 021 30.6
2020-Aug-13 14:00 021 30.6
2020-Aug-13 13:50 296 30.6
2020-Aug-13 13:45 272 30.6
2020-Aug-13 13:35 032 30.0
2020-Aug-13 13:25 032 0 gusting 2 30.0
2020-Aug-13 13:15 042 0 gusting 1 29.4
2020-Aug-13 13:05 318 29.4
2020-Aug-13 13:00 318 28.9
2020-Aug-13 12:50 314 27.8
2020-Aug-13 12:45 312 27.8
2020-Aug-13 12:30 290 26.7
2020-Aug-13 12:20 290 25.0
2020-Aug-13 12:10 290 23.9
2020-Aug-13 12:05 290 23.3
2020-Aug-13 12:00 290 22.2
2020-Aug-13 11:55 290 21.7
2020-Aug-13 11:40 290 21.1
2020-Aug-13 11:30 290 20.6
2020-Aug-13 11:25 290 20.6
2020-Aug-13 11:10 290 19.4
2020-Aug-13 11:05 290 19.4
2020-Aug-13 10:50 290 19.4
2020-Aug-13 10:45 290 18.9
2020-Aug-13 10:30 290 18.9
2020-Aug-13 10:25 290 18.9
2020-Aug-13 10:15 290 18.9
2020-Aug-13 10:10 290 18.9
2020-Aug-13 09:50 290 18.9
2020-Aug-13 09:45 290 18.9
2020-Aug-13 09:30 290 18.9
2020-Aug-13 09:25 290 18.9
2020-Aug-13 09:20 290 18.9
2020-Aug-13 09:10 290 19.4
2020-Aug-13 09:00 290 19.4
2020-Aug-13 08:55 290 19.4
2020-Aug-13 08:45 290 20.0
2020-Aug-13 08:25 290 20.0
2020-Aug-13 08:20 290 20.0
2020-Aug-13 08:05 290 19.4
2020-Aug-13 07:55 290 19.4
2020-Aug-13 07:50 290 19.4
2020-Aug-13 07:45 290 19.4
2020-Aug-13 07:30 290 20.0
2020-Aug-13 07:25 290 20.0
2020-Aug-13 07:10 290 20.0
2020-Aug-13 07:05 290 20.0
2020-Aug-13 07:00 290 20.0
2020-Aug-13 06:55 290 20.0
2020-Aug-13 06:40 290 20.6
2020-Aug-13 06:30 290 20.6
2020-Aug-13 06:25 290 20.6
2020-Aug-13 06:15 290 20.6
2020-Aug-13 06:05 290 20.6
2020-Aug-13 05:45 290 20.6
2020-Aug-13 05:40 290 20.6
2020-Aug-13 05:35 290 21.1
2020-Aug-13 05:20 290 21.1
2020-Aug-13 05:15 290 21.1
2020-Aug-13 05:10 290 21.1
2020-Aug-13 05:05 290 21.1
2020-Aug-13 04:50 290 21.1
2020-Aug-13 04:40 290 21.1
2020-Aug-13 04:15 290 21.7
2020-Aug-13 04:05 290 21.7
2020-Aug-13 04:00 290 21.7
2020-Aug-13 03:50 290 21.7
2020-Aug-13 03:35 290 22.2
2020-Aug-13 03:30 290 22.2
2020-Aug-13 03:20 290 22.8
2020-Aug-13 03:15 290 22.8
2020-Aug-13 03:05 290 22.8
2020-Aug-13 03:00 290 22.8
2020-Aug-13 02:55 290 22.8
2020-Aug-13 02:40 290 23.3
2020-Aug-13 02:30 290 23.3
2020-Aug-13 02:25 290 23.9
2020-Aug-13 02:20 290 23.9
2020-Aug-13 02:10 290 23.9
2020-Aug-13 01:45 290 25.0
2020-Aug-13 01:30 290 25.6
2020-Aug-13 01:25 290 25.6
2020-Aug-13 01:15 290 25.6
2020-Aug-13 01:05 290 26.1
2020-Aug-13 01:00 290 26.7
2020-Aug-13 00:50 290 26.7
2020-Aug-13 00:45 290 27.2
2020-Aug-13 00:40 290 27.2
2020-Aug-13 00:35 290 27.8
2020-Aug-13 00:25 290 27.8
2020-Aug-13 00:10 290 28.9
2020-Aug-13 00:00 290 28.9
2020-Aug-12 23:50 290 29.4
2020-Aug-12 23:30 290 30.6
2020-Aug-12 23:25 290 30.6
2020-Aug-12 23:10 290 31.1
2020-Aug-12 23:05 290 31.1
2020-Aug-12 22:55 290 31.7
2020-Aug-12 22:40 290 31.7
2020-Aug-12 22:35 290 31.7
2020-Aug-12 22:15 288 32.2
2020-Aug-12 22:00 288 32.2
2020-Aug-12 21:45 288 32.8
2020-Aug-12 21:40 288 32.8
2020-Aug-12 21:35 288 32.8
2020-Aug-12 21:25 290 33.3
2020-Aug-12 21:20 329 0 gusting 4 33.3
2020-Aug-12 21:15 278 33.3
2020-Aug-12 21:10 277 33.9
2020-Aug-12 21:00 277 0 gusting 1 33.9
2020-Aug-12 20:50 277 0 gusting 2 34.4
2020-Aug-12 20:40 324 34.4
2020-Aug-12 20:25 323 34.4
2020-Aug-12 20:10 325 0 gusting 2 34.4
2020-Aug-12 19:55 275 35.0
2020-Aug-12 19:40 275 0 gusting 1 35.0
2020-Aug-12 19:35 275 0 gusting 2 35.6
2020-Aug-12 19:15 286 35.6
2020-Aug-12 19:10 276 35.6
2020-Aug-12 19:05 276 0 gusting 5 35.6
2020-Aug-12 19:00 321 0 gusting 6 35.6
2020-Aug-12 18:55 324 35.6
2020-Aug-12 18:45 325 35.6
2020-Aug-12 18:35 325 1 gusting 2 35.6
2020-Aug-12 18:20 289 0 gusting 1 35.6
2020-Aug-12 18:15 277 35.0
2020-Aug-12 18:05 290 0 gusting 1 35.0
2020-Aug-12 17:50 290 35.0
2020-Aug-12 17:35 290 1 gusting 2 35.6
2020-Aug-12 17:10 289 0 gusting 2 35.6